When you browse on this site, cookies collect data to enhance your experience and personalize the content and advertising you see.
Visit our Privacy Policy to learn more. By continuing to use the site, you agree to this use of cookies and data.

Hourly Weather Oksford

Today, 8 July, Wednesday

Time Temperature Precipitation Wind Pressure Humidity
00:00 +14°C° 0.7 mm 6 mps 755 mmHg 96%
01:00 +15°C° 0.5 mm 5 mps 755 mmHg 96%
02:00 +15°C° 0.5 mm 5 mps 754 mmHg 96%
03:00 +15°C° 0.5 mm 5 mps 754 mmHg 96%
04:00 +15°C° 0.3 mm 5 mps 754 mmHg 96%
05:00 +15°C° 0.3 mm 4 mps 754 mmHg 96%
06:00 +15°C° 0.3 mm 4 mps 754 mmHg 96%
07:00 +15°C° 0.3 mm 4 mps 755 mmHg 96%
08:00 +16°C° 0.3 mm 3 mps 755 mmHg 96%
09:00 +16°C° 0.3 mm 3 mps 755 mmHg 96%
10:00 +16°C° 0.2 mm 2 mps 755 mmHg 95%
11:00 +16°C° 0.2 mm 2 mps 756 mmHg 95%
12:00 +16°C° 0.2 mm 1 mps 756 mmHg 94%
13:00 +18°C° 0.1 mm 1 mps 756 mmHg 92%
14:00 +18°C° 0.1 mm 1 mps 756 mmHg 89%
15:00 +19°C° 0.1 mm 1 mps 756 mmHg 87%
16:00 +18°C° 0.1 mm 1 mps 756 mmHg 90%
17:00 +18°C° 0.1 mm 1 mps 756 mmHg 92%
18:00 +16°C° 0.1 mm 2 mps 755 mmHg 95%
19:00 +16°C° 0.3 mm 2 mps 755 mmHg 96%
20:00 +16°C° 0.3 mm 3 mps 755 mmHg 97%
21:00 +16°C° 0.3 mm 3 mps 755 mmHg 97%
22:00 +15°C° 0.3 mm 4 mps 755 mmHg 97%
23:00 +15°C° 0.3 mm 4 mps 755 mmHg 96%

Tomorrow, 9 July, Thursday

Time Temperature Precipitation Wind Pressure Humidity
00:00 +15°C° 0.3 mm 5 mps 754 mmHg 96%
01:00 +15°C° 0.1 mm 5 mps 754 mmHg 96%
02:00 +15°C° 0.1 mm 5 mps 754 mmHg 95%
03:00 +15°C° 0.1 mm 5 mps 754 mmHg 95%
04:00 +15°C° 0.1 mm 5 mps 753 mmHg 94%
05:00 +15°C° 0.1 mm 5 mps 753 mmHg 93%
06:00 +15°C° 0.1 mm 5 mps 753 mmHg 92%
07:00 +16°C° 0 mm 6 mps 753 mmHg 91%
08:00 +17°C° 0 mm 6 mps 753 mmHg 89%
09:00 +19°C° 0 mm 6 mps 753 mmHg 87%
10:00 +19°C° 0.1 mm 6 mps 753 mmHg 86%
11:00 +19°C° 0.1 mm 6 mps 752 mmHg 84%
12:00 +20°C° 0.1 mm 6 mps 752 mmHg 83%
13:00 +20°C° 0.2 mm 6 mps 752 mmHg 83%
14:00 +20°C° 0.2 mm 6 mps 752 mmHg 83%
15:00 +20°C° 0.2 mm 6 mps 752 mmHg 84%
16:00 +19°C° 0.2 mm 6 mps 752 mmHg 85%
17:00 +19°C° 0.2 mm 6 mps 752 mmHg 86%
18:00 +19°C° 0.2 mm 6 mps 752 mmHg 87%
19:00 +17°C° 0.1 mm 5 mps 752 mmHg 89%
20:00 +17°C° 0.1 mm 4 mps 752 mmHg 92%
21:00 +16°C° 0.1 mm 3 mps 753 mmHg 94%
22:00 +14°C° 0 mm 4 mps 753 mmHg 94%
23:00 +13°C° 0 mm 4 mps 753 mmHg 94%

Day after tomorrow, 10 July, Friday

Time Temperature Precipitation Wind Pressure Humidity
00:00 +13°C° 0 mm 4 mps 753 mmHg 93%
01:00 +12°C° 0 mm 4 mps 753 mmHg 94%
02:00 +12°C° 0 mm 4 mps 753 mmHg 94%
03:00 +11°C° 0 mm 4 mps 754 mmHg 95%
04:00 +11°C° 0 mm 4 mps 754 mmHg 92%
05:00 +10°C° 0 mm 5 mps 754 mmHg 90%
06:00 +10°C° 0 mm 6 mps 755 mmHg 87%
07:00 +11°C° 0 mm 6 mps 755 mmHg 82%
08:00 +13°C° 0 mm 6 mps 755 mmHg 76%
09:00 +14°C° 0 mm 6 mps 756 mmHg 71%
10:00 +14°C° 0 mm 6 mps 756 mmHg 69%
11:00 +15°C° 0 mm 6 mps 756 mmHg 68%
12:00 +15°C° 0 mm 6 mps 757 mmHg 66%
13:00 +16°C° 0.1 mm 6 mps 757 mmHg 66%
14:00 +17°C° 0.1 mm 7 mps 757 mmHg 65%
15:00 +17°C° 0.1 mm 7 mps 757 mmHg 65%
16:00 +17°C° 0.1 mm 7 mps 758 mmHg 66%
17:00 +16°C° 0.1 mm 6 mps 758 mmHg 67%
18:00 +16°C° 0.1 mm 6 mps 758 mmHg 68%
19:00 +14°C° 0 mm 5 mps 759 mmHg 71%
20:00 +13°C° 0 mm 4 mps 760 mmHg 75%
21:00 +11°C° 0 mm 3 mps 760 mmHg 78%
22:00 +10°C° 0 mm 3 mps 761 mmHg 80%
23:00 +10°C° 0 mm 3 mps 761 mmHg 83%

11 July, Saturday

Time Temperature Precipitation Wind Pressure Humidity
00:00 +9°C° 0 mm 3 mps 761 mmHg 86%
01:00 +8°C° 0 mm 3 mps 761 mmHg 88%
02:00 +8°C° 0 mm 3 mps 762 mmHg 90%
03:00 +8°C° 0 mm 3 mps 762 mmHg 91%
04:00 +8°C° 0 mm 3 mps 762 mmHg 88%
05:00 +9°C° 0 mm 3 mps 762 mmHg 85%
06:00 +10°C° 0 mm 4 mps 763 mmHg 82%
07:00 +11°C° 0 mm 4 mps 763 mmHg 78%
08:00 +13°C° 0 mm 4 mps 763 mmHg 74%
09:00 +15°C° 0 mm 5 mps 764 mmHg 70%
10:00 +16°C° 0 mm 5 mps 764 mmHg 67%
11:00 +18°C° 0 mm 4 mps 764 mmHg 63%
12:00 +19°C° 0 mm 4 mps 764 mmHg 60%
13:00 +19°C° 0 mm 4 mps 764 mmHg 60%
14:00 +19°C° 0 mm 4 mps 764 mmHg 60%
15:00 +19°C° 0 mm 3 mps 764 mmHg 59%
16:00 +19°C° 0 mm 3 mps 764 mmHg 62%
17:00 +18°C° 0 mm 3 mps 764 mmHg 65%
18:00 +18°C° 0 mm 2 mps 764 mmHg 68%
19:00 +16°C° 0 mm 2 mps 764 mmHg 73%
20:00 +15°C° 0 mm 2 mps 765 mmHg 79%
21:00 +13°C° 0 mm 2 mps 765 mmHg 84%
22:00 +12°C° 0 mm 2 mps 765 mmHg 85%
23:00 +12°C° 0 mm 1 mps 765 mmHg 86%

12 July, Sunday

Time Temperature Precipitation Wind Pressure Humidity
00:00 +11°C° 0 mm 1 mps 765 mmHg 87%
01:00 +11°C° 0 mm 1 mps 765 mmHg 87%
02:00 +10°C° 0 mm 1 mps 765 mmHg 88%
03:00 +10°C° 0 mm 1 mps 765 mmHg 88%
04:00 +11°C° 0 mm 1 mps 765 mmHg 85%
05:00 +11°C° 0 mm 1 mps 765 mmHg 83%
06:00 +11°C° 0 mm 0 mps 765 mmHg 80%
07:00 +13°C° 0 mm 0 mps 765 mmHg 75%
08:00 +15°C° 0 mm 0 mps 765 mmHg 70%
09:00 +17°C° 0 mm 0 mps 766 mmHg 64%
10:00 +18°C° 0 mm 0 mps 765 mmHg 61%
11:00 +19°C° 0 mm 0 mps 765 mmHg 57%
12:00 +20°C° 0 mm 0 mps 765 mmHg 54%
13:00 +20°C° 0 mm 0 mps 765 mmHg 52%
14:00 +21°C° 0 mm 0 mps 765 mmHg 51%
15:00 +21°C° 0 mm 0 mps 764 mmHg 50%
16:00 +21°C° 0 mm 0 mps 764 mmHg 53%
17:00 +20°C° 0 mm 0 mps 764 mmHg 57%
18:00 +20°C° 0 mm 0 mps 764 mmHg 60%
19:00 +20°C° 0 mm 1 mps 764 mmHg 66%
20:00 +18°C° 0 mm 1 mps 764 mmHg 72%
21:00 +15°C° 0 mm 1 mps 764 mmHg 77%
22:00 +14°C° 0 mm 1 mps 764 mmHg 80%
23:00 +14°C° 0 mm 1 mps 763 mmHg 83%

13 July, Monday

Time Temperature Precipitation Wind Pressure Humidity
00:00 +13°C° 0 mm 1 mps 763 mmHg 86%
01:00 +13°C° 0 mm 1 mps 763 mmHg 86%
02:00 +13°C° 0 mm 1 mps 763 mmHg 86%
03:00 +12°C° 0 mm 1 mps 762 mmHg 86%
04:00 +13°C° 0 mm 1 mps 762 mmHg 84%
05:00 +14°C° 0 mm 2 mps 762 mmHg 82%
06:00 +14°C° 0 mm 2 mps 762 mmHg 79%
07:00 +16°C° 0 mm 2 mps 762 mmHg 73%
08:00 +17°C° 0 mm 3 mps 762 mmHg 66%
09:00 +18°C° 0 mm 3 mps 762 mmHg 60%
10:00 +19°C° 0 mm 4 mps 761 mmHg 57%
11:00 +20°C° 0 mm 4 mps 761 mmHg 55%
12:00 +21°C° 0 mm 5 mps 761 mmHg 53%
13:00 +21°C° 0 mm 5 mps 761 mmHg 54%
14:00 +21°C° 0 mm 5 mps 760 mmHg 56%
15:00 +21°C° 0 mm 5 mps 760 mmHg 58%
16:00 +20°C° 0 mm 5 mps 760 mmHg 63%
17:00 +19°C° 0 mm 5 mps 759 mmHg 68%
18:00 +17°C° 0 mm 5 mps 759 mmHg 73%
19:00 +17°C° 0 mm 4 mps 759 mmHg 80%
20:00 +15°C° 0 mm 4 mps 759 mmHg 87%
21:00 +13°C° 0 mm 4 mps 759 mmHg 94%
22:00 +13°C° 0 mm 3 mps 759 mmHg 95%
23:00 +13°C° 0 mm 3 mps 758 mmHg 95%
Show more